Rantoul, IL

3:14 AM CST on February 21, 2017 (GMT -0600)
Rantoul

Weather History for KTIP - March, 2013

Change the Weather History Date:

Tuesday, March 26, 2013

  Actual Average (KCMI) Record (KCMI)
Temperature  
Mean Temperature 34 °F -  
Max Temperature 39 °F 53 °F 79 °F (2007)
Min Temperature 30 °F 32 °F 12 °F (2001)
Degree Days  
Heating Degree Days 31    
Moisture  
Dew Point 28 °F    
Average Humidity 76    
Maximum Humidity 85    
Minimum Humidity 52    
Precipitation  
Precipitation 0.00 in - - ()
Sea Level Pressure  
Sea Level Pressure 30.20 in    
Wind  
Wind Speed 10 mph (WNW)    
Max Wind Speed 18 mph    
Max Gust Speed 28 mph    
Visibility 10 miles    
Events      
Averages and records for this station are not official NWS values.
T = Trace of Precipitation, MM = Missing Value Source: NWS Daily Summary

Daily Weather History Graph

Daily Weather History Graph

Search for Another Location

Airport or City:

Trip Planner

Search our weather history database for the weather conditions in past years. The results will help you decide how hot, cold, wet, or windy it might be!

Date:

Astronomy

Mar. 26, 2013 Rise Set
Actual Time 6:45 AM CDT 7:11 PM CDT
Civil Twilight 6:18 AM CDT 7:38 PM CDT
Nautical Twilight 5:46 AM CDT 8:10 PM CDT
Astronomical Twilight 5:13 AM CDT 8:43 PM CDT
Moon 6:47 PM CDT (3/26) 6:02 AM CDT (3/26)
Length of Visible Light 13h 19m
Length of Day
12h 25m
Waxing Gibbous, 99% of the Moon is Illuminated
Mar 26
Waxing Gibbous
Mar 27
Full
Apr 2
Last Quarter
Apr 10
New
Apr 18
First Quarter

Hourly Weather History & Observations

Time (CDT) Temp. Windchill Dew Point Humidity Pressure Visibility Wind Dir Wind Speed Gust Speed Precip Events Conditions
12:15 AM 33.4 °F 25.9 °F 26.1 °F 74% 30.10 in 10.0 mi NNW 9.2 mph - N/A   Overcast
12:35 AM 33.3 °F 26.4 °F 26.1 °F 75% 30.10 in 10.0 mi NW 8.1 mph - N/A   Overcast
12:55 AM 32.9 °F 26.7 °F 26.8 °F 78% 30.10 in 10.0 mi NW 6.9 mph - N/A   Overcast
1:15 AM 32.9 °F 25.3 °F 27.3 °F 80% 30.11 in 10.0 mi NW 9.2 mph - N/A   Overcast
1:35 AM 32.9 °F 24.7 °F 27.5 °F 81% 30.11 in 10.0 mi NW 10.4 mph - N/A   Overcast
1:55 AM 32.9 °F 24.1 °F 28.0 °F 82% 30.11 in 10.0 mi NW 11.5 mph - N/A   Overcast
2:15 AM 32.7 °F 23.9 °F 28.4 °F 84% 30.10 in 10.0 mi NW 11.5 mph 16.1 mph N/A   Overcast
2:35 AM 32.7 °F 24.5 °F 28.2 °F 83% 30.11 in 10.0 mi NW 10.4 mph - N/A   Overcast
2:55 AM 32.5 °F 24.2 °F 27.9 °F 83% 30.11 in 10.0 mi NW 10.4 mph - N/A   Overcast
3:15 AM 32.5 °F 24.2 °F 27.5 °F 82% 30.11 in 10.0 mi NW 10.4 mph - N/A   Overcast
3:35 AM 32.4 °F 24.6 °F 27.5 °F 82% 30.11 in 10.0 mi NW 9.2 mph - N/A   Overcast
3:55 AM 32.0 °F 23.6 °F 27.5 °F 83% 30.11 in 10.0 mi NW 10.4 mph - N/A   Overcast
4:15 AM 32.0 °F 23.6 °F 27.1 °F 82% 30.11 in 10.0 mi NW 10.4 mph 16.1 mph N/A   Mostly Cloudy
4:35 AM 31.8 °F 23.9 °F 27.0 °F 82% 30.11 in 10.0 mi NW 9.2 mph - N/A   Scattered Clouds
5:15 AM 32.0 °F 24.2 °F 27.5 °F 83% 30.12 in 10.0 mi NW 9.2 mph - N/A   Mostly Cloudy
5:35 AM 32.0 °F 24.2 °F 27.5 °F 83% 30.13 in 10.0 mi NW 9.2 mph - N/A   Overcast
5:55 AM 32.0 °F 24.2 °F 27.7 °F 84% 30.14 in 10.0 mi NW 9.2 mph - N/A   Overcast
6:15 AM 32.0 °F 24.2 °F 27.7 °F 84% 30.14 in 10.0 mi NW 9.2 mph - N/A   Overcast
6:35 AM 32.0 °F 24.8 °F 27.9 °F 85% 30.15 in 10.0 mi NW 8.1 mph - N/A   Overcast
6:55 AM 32.0 °F 24.8 °F 27.9 °F 85% 30.15 in 10.0 mi NW 8.1 mph - N/A   Overcast
7:15 AM 32.0 °F 24.2 °F 28.0 °F 85% 30.16 in 10.0 mi NW 9.2 mph - N/A   Overcast
7:35 AM 32.0 °F 24.2 °F 27.9 °F 85% 30.17 in 10.0 mi NW 9.2 mph - N/A   Overcast
7:55 AM 32.2 °F 24.4 °F 27.5 °F 83% 30.18 in 10.0 mi NW 9.2 mph - N/A   Overcast
8:15 AM 32.5 °F 21.2 °F 27.9 °F 83% 30.19 in 10.0 mi NW 18.4 mph 25.3 mph N/A   Mostly Cloudy
8:55 AM 33.3 °F 22.8 °F 28.0 °F 81% 30.20 in 10.0 mi NW 16.1 mph 24.2 mph N/A   Mostly Cloudy
9:15 AM 33.4 °F 25.9 °F 28.2 °F 81% 30.20 in 10.0 mi NW 9.2 mph - N/A   Mostly Cloudy
9:35 AM 34.2 °F 24.0 °F 28.2 °F 79% 30.20 in 10.0 mi NW 16.1 mph 27.6 mph N/A   Scattered Clouds
9:55 AM 34.7 °F 26.4 °F 28.2 °F 77% 30.21 in 10.0 mi NW 11.5 mph - N/A   Scattered Clouds
10:15 AM 35.2 °F 26.6 °F 28.4 °F 76% 30.21 in 10.0 mi NW 12.7 mph 18.4 mph N/A   Mostly Cloudy
10:35 AM 35.2 °F 26.6 °F 28.4 °F 76% 30.22 in 10.0 mi NW 12.7 mph - N/A   Mostly Cloudy
10:55 AM 35.6 °F 28.0 °F 28.4 °F 75% 30.23 in 10.0 mi NW 10.4 mph 17.3 mph N/A   Scattered Clouds
11:15 AM 35.6 °F 27.5 °F 28.6 °F 76% 30.23 in 10.0 mi NW 11.5 mph 17.3 mph N/A   Scattered Clouds
11:35 AM 36.0 °F 27.5 °F 29.3 °F 77% 30.23 in 10.0 mi NW 12.7 mph - N/A   Mostly Cloudy
11:55 AM 36.5 °F 28.7 °F 29.1 °F 75% 30.23 in 10.0 mi NW 11.5 mph - N/A   Scattered Clouds
12:15 PM 36.5 °F 28.7 °F 28.8 °F 74% 30.23 in 10.0 mi NW 11.5 mph - N/A   Clear
12:35 PM 36.9 °F 29.1 °F 28.4 °F 71% 30.23 in 10.0 mi WNW 11.5 mph 16.1 mph N/A   Clear
12:55 PM 37.2 °F 30.6 °F 28.2 °F 70% 30.23 in 10.0 mi WNW 9.2 mph - N/A   Clear
1:15 PM 36.9 °F 29.6 °F 28.2 °F 71% 30.24 in 10.0 mi WNW 10.4 mph - N/A   Scattered Clouds
1:35 PM 37.8 °F 30.7 °F 27.9 °F 67% 30.23 in 10.0 mi West 10.4 mph - N/A   Scattered Clouds
1:55 PM 38.3 °F 31.4 °F 27.0 °F 64% 30.23 in 10.0 mi WNW 10.4 mph - N/A   Clear
2:15 PM 38.5 °F 31.6 °F 26.1 °F 61% 30.23 in 10.0 mi West 10.4 mph - N/A   Clear
2:35 PM 38.3 °F 31.4 °F 27.1 °F 64% 30.23 in 10.0 mi WNW 10.4 mph - N/A   Clear
2:55 PM 38.7 °F 30.5 °F 22.3 °F 52% 30.23 in 10.0 mi WNW 13.8 mph - N/A   Mostly Cloudy
3:15 PM 38.7 °F 30.5 °F 24.3 °F 56% 30.23 in 10.0 mi WNW 13.8 mph 17.3 mph N/A   Overcast
3:35 PM 38.5 °F 30.3 °F 25.2 °F 59% 30.23 in 10.0 mi West 13.8 mph - N/A   Mostly Cloudy
3:55 PM 38.3 °F 30.1 °F 28.9 °F 69% 30.23 in 10.0 mi West 13.8 mph - N/A   Clear
4:15 PM 38.1 °F 29.5 °F 28.2 °F 68% 30.24 in 10.0 mi West 15.0 mph - N/A   Scattered Clouds
4:35 PM 38.3 °F 30.5 °F 28.2 °F 67% 30.24 in 10.0 mi West 12.7 mph 17.3 mph N/A   Mostly Cloudy
4:55 PM 38.1 °F 31.2 °F 27.0 °F 64% 30.24 in 10.0 mi West 10.4 mph - N/A   Mostly Cloudy
5:15 PM 37.4 °F 30.3 °F 26.8 °F 66% 30.24 in 10.0 mi West 10.4 mph - N/A   Mostly Cloudy
5:35 PM 36.9 °F 30.1 °F 26.6 °F 66% 30.25 in 10.0 mi West 9.2 mph - N/A   Overcast
5:55 PM 36.7 °F 29.4 °F 27.5 °F 69% 30.25 in 10.0 mi West 10.4 mph - N/A   Overcast
6:15 PM 36.7 °F 28.9 °F 26.6 °F 67% 30.26 in 10.0 mi WNW 11.5 mph - N/A   Overcast
6:35 PM 36.3 °F 29.5 °F 27.5 °F 70% 30.26 in 10.0 mi WNW 9.2 mph - N/A   Overcast
6:55 PM 36.0 °F 29.0 °F 27.9 °F 72% 30.26 in 10.0 mi WNW 9.2 mph - N/A   Overcast
7:15 PM 35.6 °F 29.2 °F 28.2 °F 75% 30.26 in 10.0 mi WNW 8.1 mph - N/A   Overcast
7:35 PM 35.6 °F 29.9 °F 28.4 °F 75% 30.27 in 10.0 mi West 6.9 mph - N/A   Overcast
7:55 PM 35.6 °F 29.9 °F 28.6 °F 76% 30.27 in 10.0 mi West 6.9 mph - N/A   Overcast
8:15 PM 35.1 °F 28.6 °F 29.3 °F 80% 30.27 in 10.0 mi West 8.1 mph - N/A   Overcast
8:35 PM 34.9 °F 27.7 °F 29.8 °F 82% 30.27 in 10.0 mi West 9.2 mph - N/A   Overcast
8:55 PM 34.9 °F 28.3 °F 29.7 °F 81% 30.27 in 10.0 mi West 8.1 mph - N/A   Overcast
9:15 PM 34.9 °F 27.1 °F 29.1 °F 79% 30.27 in 10.0 mi West 10.4 mph - N/A   Mostly Cloudy
9:35 PM 34.0 °F 26.6 °F 28.9 °F 82% 30.28 in 10.0 mi West 9.2 mph - N/A   Clear
9:55 PM 33.4 °F 26.6 °F 28.8 °F 83% 30.27 in 10.0 mi West 8.1 mph - N/A   Clear
10:15 PM 32.9 °F 25.9 °F 28.2 °F 83% 30.27 in 10.0 mi West 8.1 mph - N/A   Clear
10:35 PM 32.4 °F 25.3 °F 27.9 °F 83% 30.28 in 10.0 mi West 8.1 mph - N/A   Clear
10:55 PM 31.8 °F 26.2 °F 27.3 °F 83% 30.28 in 10.0 mi West 5.8 mph - N/A   Clear
11:15 PM 30.9 °F 26.2 °F 27.0 °F 85% 30.29 in 10.0 mi West 4.6 mph - N/A   Clear
11:35 PM 30.6 °F 25.8 °F 26.4 °F 85% 30.29 in 10.0 mi WNW 4.6 mph - N/A   Clear
11:55 PM 30.0 °F 25.2 °F 25.9 °F 85% 30.29 in 10.0 mi WNW 4.6 mph - N/A   Clear